Ash Shahaniyah, Qatar

2:12 PM AST on February 26, 2017 (GMT +0300)
Ash Shahaniyah

Weather History for WKQIR - April, 2014

Change the Weather History Date:

Wednesday, April 9, 2014

  Actual Average Record
Temperature  
Mean Temperature 77 °F -  
Max Temperature 91 °F - - ()
Min Temperature 63 °F - - ()
Cooling Degree Days 12    
Growing Degree Days 27 (Base 50)    
Moisture  
Dew Point 52 °F    
Average Humidity 47    
Maximum Humidity 80    
Minimum Humidity 15    
Precipitation  
Precipitation 0.00 in - - ()
Sea Level Pressure  
Sea Level Pressure 29.92 in    
Wind  
Wind Speed 5 mph ()    
Max Wind Speed 14 mph    
Max Gust Speed -    
Visibility 6.1 miles    
Events      
T = Trace of Precipitation, MM = Missing Value Source: Averaged Metar Reports

Daily Weather History Graph

Daily Weather History Graph

Search for Another Location

Airport or City:

Trip Planner

Search our weather history database for the weather conditions in past years. The results will help you decide how hot, cold, wet, or windy it might be!

Date:

Astronomy

Apr. 09, 2014 Rise Set
Actual Time 5:18 AM AST 5:55 PM AST
Civil Twilight 4:55 AM AST 6:18 PM AST
Nautical Twilight 4:28 AM AST 6:45 PM AST
Astronomical Twilight 4:00 AM AST 7:13 PM AST
Moon 12:52 PM AST (4/9) 1:21 AM AST (4/9)
Length of Visible Light 13h 22m
Length of Day
12h 36m
Waxing Gibbous, 69% of the Moon is Illuminated
Apr 9
Waxing Gibbous
Apr 15
Full
Apr 22
Last Quarter
Apr 29
New
May 7
First Quarter

Hourly Weather History & Observations

Time (AST) Temp. Dew Point Humidity Pressure Visibility Wind Dir Wind Speed Gust Speed Precip Events Conditions
12:58 AM 68.0 °F 55.0 °F 63% 29.93 in 6.2 mi Calm Calm - N/A   Clear
1:58 AM 66.0 °F 53.8 °F 65% 29.91 in 6.2 mi SE 4.6 mph - N/A   Clear
2:58 AM 66.2 °F 55.8 °F 69% 29.90 in 6.2 mi SE 3.5 mph - N/A   Clear
3:58 AM 63.0 °F 52.3 °F 68% 29.91 in 6.2 mi ESE 3.5 mph - N/A   Clear
4:58 AM 66.0 °F 59.5 °F 80% 29.91 in 6.2 mi SE 4.6 mph - N/A   Clear
5:58 AM 63.7 °F 57.0 °F 79% 29.93 in 6.2 mi SE 4.6 mph - N/A   Clear
6:58 AM 66.2 °F 59.0 °F 78% 29.96 in 3.1 mi South 2.3 mph - N/A   Haze
7:58 AM 73.4 °F 62.1 °F 68% 29.97 in 6.2 mi SSE 6.9 mph - N/A   Clear
8:58 AM 79.9 °F 52.7 °F 39% 29.98 in 6.2 mi SSE 8.1 mph - N/A   Clear
9:58 AM 84.0 °F 48.9 °F 29% 29.99 in 6.2 mi SSE 8.1 mph - N/A   Clear
10:58 AM 86.7 °F 48.6 °F 27% 29.97 in 6.2 mi SSE 6.9 mph - N/A   Clear
11:58 AM 89.6 °F 42.8 °F 20% 29.95 in 6.2 mi Variable 2.3 mph - N/A   Scattered Clouds
12:58 PM 90.3 °F 40.5 °F 17% 29.92 in 6.2 mi Variable 2.3 mph - N/A   Partly Cloudy
1:58 PM 91.9 °F 37.9 °F 15% 29.89 in 6.2 mi SE 3.5 mph - N/A   Clear
2:58 PM 91.8 °F 45.1 °F 20% 29.88 in 6.2 mi SSE 6.9 mph - N/A   Haze
3:58 PM 90.9 °F 45.1 °F 21% 29.85 in 6.2 mi SSE 10.4 mph - N/A   Clear
4:58 PM 87.8 °F 45.1 °F 23% 29.85 in 6.2 mi East 13.8 mph - N/A   Clear
5:58 PM 83.8 °F 45.0 °F 26% 29.86 in 6.2 mi East 11.5 mph - N/A   Clear
6:58 PM 79.7 °F 54.1 °F 41% 29.88 in 6.2 mi East 9.2 mph - N/A   Clear
7:58 PM 77.7 °F 57.6 °F 50% 29.90 in 6.2 mi East 9.2 mph - N/A   Clear
8:58 PM 76.6 °F 59.2 °F 55% 29.93 in 6.2 mi ENE 8.1 mph - N/A   Clear
9:58 PM 76.3 °F 56.1 °F 50% 29.93 in 6.2 mi NE 5.8 mph - N/A   Clear
10:58 PM 74.1 °F 59.4 °F 60% 29.92 in 6.2 mi East 5.8 mph - N/A   Clear
11:58 PM 72.1 °F 61.7 °F 70% 29.90 in 6.2 mi East 6.9 mph - N/A   Clear